[pskmail] Question

  • From: "Gunnar Bulukin" <gunnar@xxxxxxxxxx>
  • To: <pskmail@xxxxxxxxxxxxx>
  • Date: Sun, 24 Apr 2011 17:16:18 +0200

Hi,
 
SA6BQZ-1 is now of the air! Instead SA6BQZ client is on the air;-)
 
Now to the question.
A lot of boats are using AIS to see and be seen.
Is there a way of transmitting this info vi pskmailclient. When of the coast
more then around 10nm the AIS class does not reach land.
This should of course not be a continues transmit but just taking the
momentary info of 30 sec once every 30 minutes.
 
The info looks like this:
!AIVDM,1,1,,A,34cbMp001a0h:N0QgEWi8i4N00tP,0*13
!AIVDM,1,1,,A,39NWvWPPAOPfw1@QfWF9u7vN00o1,0*11
!AIVDM,1,1,,A,13Mf7v00290iEi<Q7udUATNP0@9L,0*20
!AIVDM,1,1,,A,14S<:n001a0hEV`Qru16LU8P25hL,0*60
!AIVDM,1,1,,B,13QVb>001J0ldG4Pm55=8JVN05hL,0*07
!AIVDM,1,1,,A,18KRtN001QPmwsHQ01d1rQTL0L3H,0*24
!AIVDM,1,1,,A,33m32n061>0hj7rQUmDncUdN0000,0*05
!AIVDM,1,1,,B,13u84d0000Pk86LQfUC002RN00SI,0*56
!AIVDM,1,1,,A,13n8cp01ChPf0btQPJHhAP:N0<0?,0*56
!AIVDM,1,1,,A,13u9NR70000nB1PPvwSWdPfR0<2<,0*59
!AIVDM,1,1,,A,402M3<@000Htt0h93PR7>T700h9c,0*62
!AIVDM,1,1,,A,13uCES0P@0PmGF>Q1?W2wChR0D1q,0*16
!AIVDM,1,1,,A,13ocT00wQd0mEJVQ9:RArQSf0@9e,0*41
!AIVDM,2,1,3,B,53uCcl000001<H4N220hj3??R1@E8ptF2222220N1@51440Ht00000000000,
0*0F
!AIVDM,2,2,3,B,00000000000,2*24
!AIVDM,1,1,,A,13uDWsg01JPn3e@Pv<aWW68R0@9k,0*30
!AIVDM,1,1,,B,13u@oA?P010nIlbQ0OGFawvN00SO,0*56
!AIVDM,1,1,,B,13m6BdPP00PiucLQl21J7gvR289o,0*65
!AIVDM,1,1,,A,13@oU8h0000nBBVPw41soH>R05hL,0*0D
!AIVDM,1,1,,A,13c>`6001G0meb4Q;2kHho6N00T4,0*53
!AIVDM,1,1,,A,13uPW0?P@10mGlPQ1BKS82PR0<2R,0*00
!AIVDM,1,1,,B,33u<op0PBPPlqOVPrjAHQ6vN0000,0*4B
!AIVDO,1,1,,,B3uUHAP000=Glm8@;Q@03w`5sP06,0*70
!AIVDM,1,1,,A,13us6D002E0hnP:QHTu6pENP0l02,0*00
!AIVDM,1,1,,A,13u?er0P01Pn=WRPwWunngvN0D1P,0*51
!AIVDM,1,1,,B,13Lwrt002>0hQGhQqPL6O5<T0@:4,0*56
!AIVDM,1,1,,B,33u@fh5P00PnCfBQ0CBrJgvP2Dn:,0*19
!AIVDM,1,1,,B,14SP4B000pPiN:nQPj>7Qn:T2D0h,0*2B
!AIVDM,1,1,,A,13u=JE0P030mGVTQ1L6RfOvP05hL,0*7E
!AIVDM,1,1,,A,13@oFehP010nBEpPw3euIOvR0H:7,0*6B
!AIVDM,1,1,,A,13vD04?P000mw8BPuHgKu?vT08:8,0*0E
!AIVDM,1,1,,B,13mk:s7000Pii86QkPEdCFrT08:;,0*50
!AIVDM,1,1,,B,13mEJ`0P1q0hIthR3DT7RUvL05hL,0*52
!AIVDM,1,1,,A,13u=Qw0200PnEqNQ0GVM3jPR0UhL,0*2B
!AIVDM,1,1,,A,B3m8qW0000<LDM`Lp?h03w`UkP06,0*2A
!AIVDM,1,1,,B,33u?etPv020naopQ1=1GJoVP00vQ,0*55
!AIVDM,1,1,,B,13o9LJ002aPj=;hQhQL4d3lR00Rk,0*30
!AIVDM,1,1,,A,13oA4d002MPfsMRQjk>=dbtR2<0?,0*0D
!AIVDO,1,1,,A,B3uUHAP000=Glm`@;Q@03w`UkP06,0*11
!AIVDM,1,1,,B,13B@jH0PAPPmD:0Q96`B81`T28:Q,0*25
!AIVDM,1,1,,A,33uFk<5PA<Pn<NvPv<oF5ljR00nQ,0*0D
!AIVDM,1,1,,B,13`tsp0PBP0lH@6PmNIVBDvT08:S,0*09
!AIVDM,1,1,,A,13u>=b0P010mwt:PuU:7t?vP00S;,0*4D
!AIVDM,1,1,,B,13@oTQP2@00nSshQ14t<BbRT0H:T,0*25
!AIVDM,1,1,,B,13n8cp01kiPf0crQPJqhAP:R0H:c,0*7C
!AIVDM,2,1,2,A,53deb802Ah2GTP7;;G<8t60PDTl@4j222222220l1hB754LA0=22E83p12E8,
0*15
!AIVDM,2,2,2,A,88888888881,2*27
!AIVDM,1,1,,A,33u=dTSP@40ne`JQ19M8V4i60000,0*29
!AIVDM,1,1,,B,13uG<4gOh20n?O`PwuN=M2VV0<2H,0*09
!AIVDM,1,1,,B,402M3<@000Htt0h93PR7>T700h:n,0*6F
!AIVDM,1,1,,B,14cbMp001a0h:Q2QgEqi8i4T00Sq,0*35
!AIVDM,1,1,,B,13mFgj002H0j9FtQnkPet;4V0H:r,0*56
!AIVDM,1,1,,A,13oHa40PB:0hbm4QwbWRWQpP0@:u,0*75
!AIVDM,1,1,,A,33u=jbP000PnERtQ0HL8eohT00sh,0*2B
!AIVDO,1,1,,,B3uUHAP000=Glm`@;Q@03wa5sP06,0*29
!AIVDM,1,1,,A,13uB5bgP000nVGFPv6k<6?vV2<1i,0*42
!AIVDM,1,1,,A,14`u4>0026PlSoPPmVg=?bfT0PSU,0*50
!AIVDM,1,1,,B,13uAbDg000PnikpQ1Q>p=APV08;6,0*2E
!AIVDM,1,1,,B,33u><=g0090mJ?hQ0wa:0p:T0000,0*12
!AIVDM,1,1,,A,13m<1W7P00PfWv@QiQ13@wvT2D08,0*23
!AIVDM,1,1,,B,13u?ew0001Pn=HJPw`@oFDbR00Si,0*1F
!AIVDM,1,1,,A,33u><;?PAH0mK?<Q10T22APT0000,0*58
!AIVDM,1,1,,B,13uJLN00000nB4fPw09`7hbV00RN,0*6D
!AIVDM,1,1,,B,13u@o>gP020nEWhQ0GSoHOvR0H;<,0*14
$GPRMC,140719.00,A,5741.48041,N,01141.09246,E,0.001,,220311,,,A*7A
!AIVDM,1,1,,B,13u>f0?P010m<1JQ3canUwvT00S3,0*20
!AIVDM,1,1,,A,13Q@@`00100nu>PQ3fJ6rERV00T@,0*0E
!AIVDM,2,1,3,B,53@oU8h00000uP`g:21=E10hTE:222222222221J0P<356W605Qkm1@SlQp8,
0*69
!AIVDM,2,2,3,B,88888888880,2*24
!AIVDM,1,1,,B,13u@wD?P000qjJpPBKvsiwv`25hL,0*28
!AIVDM,1,1,,A,33m<sb0P@nPe8thQ`T7r <mailto:sb0P@nPe8thQ`T7r<`@T0Puh,0*2C>
<`@T0Puh,0*2C
!AIVDM,1,1,,B,13m:q<00020j8nTQoG1<j:>T0H;K,0*21
!AIVDM,1,1,,A,B3mIEu0000<j9r`KU;403waUkP06,0*52
!AIVDM,1,1,,A,33urO@5000Pn6kHQ0ki:N8HR0000,0*35

 
The info now is sent via broadband and a receiver on the island to
Marinetraffic and Siitech.
 
73 de SA6BQZ Gunnar
 

Other related posts: